Ottumwa, IA

8:12 PM CDT on July 23, 2017 (GMT -0500)
Ottumwa Industrial

Weather History for KOTM - April, 2012

Change the Weather History Date:

Tuesday, April 24, 2012

  Actual Average Record
Temperature  
Mean Temperature 61 °F 54 °F  
Max Temperature 79 °F 65 °F 88 °F (1989)
Min Temperature 43 °F 43 °F 24 °F (1910)
Degree Days  
Heating Degree Days 4 12  
Month to date heating degree days 293 374  
Since 1 July heating degree days 4894 6070  
Cooling Degree Days 0 1  
Month to date cooling degree days 12 4  
Year to date cooling degree days 44 5  
Growing Degree Days 10 (Base 50)    
Moisture  
Dew Point 46 °F    
Average Humidity 61    
Maximum Humidity 82    
Minimum Humidity 39    
Precipitation  
Precipitation 0.00 in 0.13 in 2.10 in (2007)
Month to date precipitation 3.20 2.60  
Year to date precipitation 7.48 7.02  
Sea Level Pressure  
Sea Level Pressure 29.70 in    
Wind  
Wind Speed 6 mph (SW)    
Max Wind Speed 15 mph    
Max Gust Speed 22 mph    
Visibility 10 miles    
Events Rain    
T = Trace of Precipitation, MM = Missing Value Source: NWS Daily Summary

Daily Weather History Graph

Daily Weather History Graph

Search for Another Location

Airport or City:

Trip Planner

Search our weather history database for the weather conditions in past years. The results will help you decide how hot, cold, wet, or windy it might be!

Date:

Astronomy

Apr. 24, 2012 Rise Set
Actual Time 6:16 AM CDT 7:59 PM CDT
Civil Twilight 5:47 AM CDT 8:29 PM CDT
Nautical Twilight 5:11 AM CDT 9:04 PM CDT
Astronomical Twilight 4:33 AM CDT 9:43 PM CDT
Moon 8:11 AM CDT 11:21 PM CDT
Length of Visible Light 14h 42m
Length of Day
13h 43m
Waxing Crescent, 10% of the Moon is Illuminated
Apr 24
Waxing Crescent
Apr 29
First Quarter
May 5
Full
May 12
Last Quarter
May 20
New

Hourly Weather History & Observations

Time (CDT) Temp. Windchill Dew Point Humidity Pressure Visibility Wind Dir Wind Speed Gust Speed Precip Events Conditions
12:53 AM 43.0 °F 40.3 °F 37.0 °F 80% 29.89 in 10.0 mi SW 4.6 mph - N/A   Clear
1:53 AM 46.0 °F 42.5 °F 37.9 °F 73% 29.87 in 10.0 mi SW 6.9 mph - N/A   Clear
2:53 AM 45.0 °F 40.6 °F 37.0 °F 74% 29.86 in 10.0 mi WSW 8.1 mph - N/A   Clear
3:53 AM 46.0 °F 41.4 °F 37.9 °F 73% 29.85 in 10.0 mi WSW 9.2 mph - N/A   Clear
4:53 AM 45.0 °F 40.1 °F 37.9 °F 76% 29.84 in 10.0 mi WSW 9.2 mph - N/A   Partly Cloudy
5:53 AM 46.9 °F - 37.9 °F 71% 29.83 in 10.0 mi WSW 8.1 mph - N/A   Clear
6:53 AM 48.0 °F - 37.0 °F 66% 29.82 in 10.0 mi SSW 6.9 mph - N/A   Clear
7:53 AM 51.1 °F - 39.0 °F 63% 29.80 in 10.0 mi SSW 6.9 mph - N/A   Clear
8:53 AM 57.9 °F - 41.0 °F 53% 29.77 in 10.0 mi SSW 11.5 mph - 0.00 in Rain Light Rain
9:53 AM 62.1 °F - 43.0 °F 50% 29.74 in 10.0 mi SW 11.5 mph - 0.00 in   Clear
10:53 AM 66.9 °F - 46.0 °F 47% 29.71 in 10.0 mi SW 9.2 mph - N/A   Clear
11:53 AM 70.0 °F - 48.0 °F 46% 29.68 in 10.0 mi SW 6.9 mph 16.1 mph N/A   Clear
12:53 PM 73.0 °F - 51.1 °F 46% 29.67 in 10.0 mi SSE 4.6 mph - N/A   Clear
1:53 PM 75.0 °F - 51.1 °F 43% 29.64 in 10.0 mi Calm Calm - N/A   Clear
2:53 PM 75.9 °F - 51.1 °F 42% 29.62 in 10.0 mi South 8.1 mph - N/A   Clear
3:53 PM 78.1 °F - 52.0 °F 40% 29.60 in 10.0 mi South 6.9 mph - N/A   Clear
4:53 PM 78.1 °F - 52.0 °F 40% 29.59 in 10.0 mi West 4.6 mph - N/A   Clear
5:53 PM 78.1 °F - 52.0 °F 40% 29.58 in 10.0 mi WSW 6.9 mph - N/A   Clear
6:53 PM 75.9 °F - 54.0 °F 46% 29.58 in 10.0 mi WSW 3.5 mph - N/A   Clear
7:53 PM 73.0 °F - 54.0 °F 51% 29.57 in 10.0 mi Calm Calm - N/A   Clear
8:53 PM 66.0 °F - 54.0 °F 65% 29.58 in 10.0 mi SSE 3.5 mph - N/A   Clear
9:53 PM 62.1 °F - 54.0 °F 75% 29.59 in 10.0 mi SE 4.6 mph - N/A   Clear
10:53 PM 62.1 °F - 53.1 °F 72% 29.59 in 10.0 mi South 4.6 mph - N/A   Clear
11:53 PM 60.1 °F - 53.1 °F 78% 29.58 in 10.0 mi Calm Calm - N/A   Clear